| time (UTC) | temp F | wind direction | speed MPH | gust MPH | rain 1hr in | rain 24hr in | rain mn in | humidity % | barometer mb |
| 20260510174010 | 80 | 290 | 2.0 | 8.0 | 0.00 | 0.01 | 0.01 | 44 | 1017.7 |
| 20260510173507 | 80 | 248 | 4.0 | 10.0 | 0.00 | 0.01 | 0.01 | 43 | 1017.8 |
| 20260510173025 | 80 | 252 | 4.0 | 10.0 | 0.00 | 0.01 | 0.01 | 47 | 1017.8 |
| 20260510172509 | 80 | 231 | 4.0 | 10.0 | 0.00 | 0.01 | 0.01 | 41 | 1017.8 |
| 20260510172015 | 80 | 200 | 5.0 | 9.0 | 0.00 | 0.01 | 0.01 | 46 | 1017.7 |
| 20260510171511 | 80 | 223 | 5.0 | 11.0 | 0.00 | 0.01 | 0.01 | 47 | 1017.7 |
| 20260510171007 | 79 | 259 | 5.0 | 11.0 | 0.00 | 0.01 | 0.01 | 44 | 1017.7 |
| 20260510170504 | 80 | 209 | 4.0 | 8.0 | 0.00 | 0.01 | 0.01 | 43 | 1017.8 |
| 20260510170016 | 80 | 244 | 2.0 | 9.0 | 0.00 | 0.01 | 0.01 | 49 | 1017.8 |
| 20260510165506 | 79 | 261 | 3.0 | 9.0 | 0.00 | 0.01 | 0.01 | 44 | 1017.8 |
| 20260510165004 | 78 | 221 | 6.0 | 10.0 | 0.00 | 0.01 | 0.01 | 46 | 1017.8 |
| 20260510164533 | 78 | 207 | 5.0 | 10.0 | 0.00 | 0.01 | 0.01 | 46 | 1017.7 |
| 20260510164005 | 78 | 261 | 3.0 | 8.0 | 0.00 | 0.01 | 0.01 | 54 | 1017.6 |
| 20260510163510 | 78 | 231 | 4.0 | 10.0 | 0.00 | 0.01 | 0.01 | 49 | 1017.7 |
| 20260510163026 | 78 | 240 | 2.0 | 12.0 | 0.00 | 0.01 | 0.01 | 50 | 1017.6 |
| 20260510162506 | 78 | 210 | 7.0 | 12.0 | 0.00 | 0.01 | 0.01 | 48 | 1017.6 |
| 20260510162010 | 78 | 279 | 2.0 | 8.0 | 0.00 | 0.01 | 0.01 | 51 | 1017.7 |
| 20260510161525 | 77 | 282 | 2.0 | 8.0 | 0.00 | 0.01 | 0.01 | 56 | 1017.8 |
| 20260510161007 | 77 | 228 | 3.0 | 9.0 | 0.00 | 0.01 | 0.01 | 51 | 1017.7 |
| 20260510160509 | 77 | 312 | 2.0 | 9.0 | 0.00 | 0.01 | 0.01 | 55 | 1017.7 |
| 20260510160014 | 77 | 244 | 5.0 | 8.0 | 0.00 | 0.01 | 0.01 | 52 | 1017.8 |
| 20260510155505 | 78 | 216 | 2.0 | 7.0 | 0.00 | 0.01 | 0.01 | 57 | 1017.8 |
| 20260510155003 | 77 | 306 | 2.0 | 7.0 | 0.00 | 0.01 | 0.01 | 56 | 1017.8 |
| 20260510154518 | 76 | 206 | 4.0 | 10.0 | 0.00 | 0.01 | 0.01 | 58 | 1017.9 |
| 20260510154009 | 76 | 261 | 3.0 | 10.0 | 0.00 | 0.01 | 0.01 | 59 | 1017.8 |
| 20260510153508 | 75 | 205 | 4.0 | 10.0 | 0.00 | 0.01 | 0.01 | 62 | 1017.7 |
| 20260510153029 | 75 | 209 | 6.0 | 9.0 | 0.00 | 0.01 | 0.01 | 60 | 1017.8 |
| 20260510152508 | 75 | 221 | 5.0 | 10.0 | 0.00 | 0.01 | 0.01 | 63 | 1017.8 |
| 20260510152007 | 75 | 190 | 5.0 | 10.0 | 0.00 | 0.01 | 0.01 | 62 | 1017.8 |
| 20260510151525 | 74 | 196 | 3.0 | 9.0 | 0.00 | 0.01 | 0.01 | 66 | 1017.8 |
| 20260510151009 | 74 | 227 | 3.0 | 9.0 | 0.00 | 0.01 | 0.01 | 69 | 1017.8 |
| 20260510150507 | 73 | 232 | 3.0 | 10.0 | 0.00 | 0.01 | 0.01 | 72 | 1017.8 |
| 20260510150026 | 73 | 227 | 5.0 | 10.0 | 0.00 | 0.01 | 0.01 | 68 | 1017.9 |
| 20260510145509 | 73 | 217 | 3.0 | 9.0 | 0.00 | 0.01 | 0.01 | 71 | 1017.9 |
| 20260510145010 | 72 | 215 | 2.0 | 9.0 | 0.00 | 0.01 | 0.01 | 72 | 1017.9 |
| 20260510144527 | 72 | 228 | 4.0 | 8.0 | 0.00 | 0.01 | 0.01 | 73 | 1017.9 |
| 20260510144003 | 72 | 209 | 4.0 | 9.0 | 0.00 | 0.01 | 0.01 | 72 | 1017.9 |
| 20260510143507 | 72 | 197 | 3.0 | 9.0 | 0.00 | 0.01 | 0.01 | 77 | 1017.8 |
| 20260510143020 | 71 | 180 | 5.0 | 9.0 | 0.00 | 0.01 | 0.01 | 76 | 1017.9 |
| 20260510142505 | 71 | 240 | 2.0 | 8.0 | 0.00 | 0.01 | 0.01 | 77 | 1017.9 |
| 20260510142012 | 70 | 269 | 2.0 | 6.0 | 0.00 | 0.01 | 0.01 | 79 | 1017.9 |
| 20260510141522 | 70 | 234 | 4.0 | 6.0 | 0.00 | 0.01 | 0.01 | 79 | 1017.9 |
| 20260510141008 | 69 | 202 | 2.0 | 6.0 | 0.00 | 0.01 | 0.01 | 82 | 1018.0 |
| 20260510140512 | 69 | 209 | 4.0 | 7.0 | 0.00 | 0.01 | 0.01 | 81 | 1017.9 |
| 20260510140028 | 68 | 272 | 2.0 | 10.0 | 0.00 | 0.01 | 0.01 | 82 | 1018.0 |
| 20260510135509 | 68 | 209 | 5.0 | 10.0 | 0.00 | 0.01 | 0.01 | 82 | 1018.0 |
| 20260510135008 | 68 | 211 | 3.0 | 6.0 | 0.00 | 0.01 | 0.01 | 84 | 1018.0 |
| 20260510134512 | 68 | 207 | 2.0 | 6.0 | 0.00 | 0.01 | 0.01 | 86 | 1017.9 |
| 20260510134006 | 67 | 170 | 1.0 | 7.0 | 0.00 | 0.01 | 0.01 | 87 | 1017.6 |
| 20260510133507 | 67 | 238 | 3.0 | 7.0 | 0.00 | 0.01 | 0.01 | 87 | 1017.5 |
| 20260510133019 | 66 | 208 | 4.0 | 6.0 | 0.00 | 0.01 | 0.01 | 89 | 1017.5 |
| 20260510132503 | 66 | 191 | 2.0 | 6.0 | 0.00 | 0.01 | 0.01 | 91 | 1017.5 |
| 20260510132007 | 65 | 261 | 4.0 | 6.0 | 0.00 | 0.01 | 0.01 | 91 | 1017.5 |
| 20260510131520 | 65 | 225 | 1.0 | 6.0 | 0.00 | 0.01 | 0.01 | 93 | 1017.6 |
| 20260510131009 | 64 | 226 | 2.0 | 6.0 | 0.00 | 0.01 | 0.01 | 94 | 1017.7 |
| 20260510130503 | 64 | 130 | 2.0 | 6.0 | 0.00 | 0.01 | 0.01 | 95 | 1017.5 |
| 20260510130010 | 63 | 211 | 4.0 | 6.0 | 0.00 | 0.01 | 0.01 | 95 | 1017.5 |
| 20260510125503 | 63 | 290 | 0.0 | 6.0 | 0.00 | 0.01 | 0.01 | 96 | 1017.4 |
| 20260510125003 | 63 | 227 | 0.0 | 4.0 | 0.00 | 0.01 | 0.01 | 96 | 1017.4 |
| 20260510124513 | 63 | 202 | 2.0 | 4.0 | 0.00 | 0.01 | 0.01 | 96 | 1017.4 |
| 20260510124007 | 62 | 19 | 0.0 | 2.0 | 0.00 | 0.01 | 0.01 | 96 | 1017.3 |
| 20260510123503 | 62 | 19 | 0.0 | 2.0 | 0.00 | 0.01 | 0.01 | 96 | 1017.2 |
| 20260510123015 | 62 | 9 | 0.0 | 2.0 | 0.01 | 0.01 | 0.01 | 97 | 1017.3 |
| 20260510122505 | 61 | 11 | 0.0 | 4.0 | 0.01 | 0.01 | 0.01 | 97 | 1017.2 |
| 20260510122006 | 61 | 11 | 0.0 | 4.0 | 0.01 | 0.01 | 0.01 | 97 | 1017.1 |
| 20260510121517 | 60 | 171 | 1.0 | 4.0 | 0.01 | 0.01 | 0.01 | 96 | 1017.1 |
| 20260510121008 | 60 | 5 | 1.0 | 4.0 | 0.01 | 0.01 | 0.01 | 96 | 1017.0 |
| 20260510120508 | 59 | 56 | 2.0 | 4.0 | 0.01 | 0.01 | 0.01 | 97 | 1017.0 |
| 20260510120028 | 59 | 342 | 1.0 | 4.0 | 0.01 | 0.01 | 0.01 | 96 | 1017.0 |
| 20260510115507 | 58 | 107 | 1.0 | 3.0 | 0.01 | 0.01 | 0.01 | 96 | 1016.8 |
| 20260510115011 | 58 | 110 | 1.0 | 4.0 | 0.01 | 0.01 | 0.01 | 96 | 1016.8 |
| 20260510114512 | 58 | 115 | 1.0 | 4.0 | 0.01 | 0.01 | 0.01 | 97 | 1016.7 |
| 20260510114003 | 57 | 119 | 2.0 | 3.0 | 0.01 | 0.01 | 0.01 | 97 | 1016.7 |
| 20260510113505 | 57 | 120 | 1.0 | 4.0 | 0.01 | 0.01 | 0.01 | 96 | 1016.6 |
| 20260510113014 | 56 | 123 | 2.0 | 4.0 | 0.00 | 0.00 | 0.00 | 96 | 1016.5 |
| 20260510112505 | 55 | 127 | 2.0 | 3.0 | 0.00 | 0.00 | 0.00 | 96 | 1016.5 |
| 20260510112006 | 54 | 140 | 1.0 | 3.0 | 0.00 | 0.00 | 0.00 | 96 | 1016.5 |
| 20260510111525 | 53 | 140 | 0.0 | 1.0 | 0.00 | 0.00 | 0.00 | 96 | 1016.6 |
| 20260510111007 | 52 | 55 | 0.0 | 1.0 | 0.00 | 0.00 | 0.00 | 95 | 1016.6 |
| 20260510110509 | 53 | 296 | 0.0 | 1.0 | 0.00 | 0.00 | 0.00 | 95 | 1016.5 |
| 20260510110019 | 53 | 166 | 0.0 | 1.0 | 0.00 | 0.00 | 0.00 | 95 | 1016.4 |
| 20260510105507 | 53 | 173 | 0.0 | 1.0 | 0.00 | 0.00 | 0.00 | 95 | 1016.4 |
| 20260510105007 | 53 | 145 | 0.0 | 1.0 | 0.00 | 0.00 | 0.00 | 95 | 1016.3 |
| 20260510104538 | 53 | 119 | 0.0 | 2.0 | 0.00 | 0.00 | 0.00 | 94 | 1016.3 |
| 20260510104007 | 53 | 115 | 0.0 | 2.0 | 0.00 | 0.00 | 0.00 | 95 | 1016.3 |
| 20260510103510 | 54 | 115 | 0.0 | 1.0 | 0.00 | 0.00 | 0.00 | 95 | 1016.2 |
| 20260510103033 | 54 | 236 | 0.0 | 1.0 | 0.00 | 0.00 | 0.00 | 95 | 1016.1 |
| 20260510102504 | 54 | 215 | 0.0 | 4.0 | 0.00 | 0.00 | 0.00 | 95 | 1016.0 |
| 20260510102002 | 54 | 200 | 0.0 | 4.0 | 0.00 | 0.00 | 0.00 | 95 | 1015.9 |
| 20260510101519 | 54 | 200 | 2.0 | 4.0 | 0.00 | 0.00 | 0.00 | 95 | 1015.8 |
| 20260510101008 | 54 | 200 | 1.0 | 4.0 | 0.00 | 0.00 | 0.00 | 95 | 1015.7 |
| 20260510100511 | 53 | 200 | 1.0 | 4.0 | 0.00 | 0.00 | 0.00 | 94 | 1015.5 |
| 20260510100019 | 54 | 200 | 1.0 | 3.0 | 0.00 | 0.00 | 0.00 | 95 | 1015.5 |
| 20260510095508 | 54 | 200 | 0.0 | 3.0 | 0.00 | 0.00 | 0.00 | 95 | 1015.5 |
| 20260510095006 | 54 | 200 | 0.0 | 2.0 | 0.00 | 0.00 | 0.00 | 95 | 1015.6 |
| 20260510094527 | 54 | 200 | 0.0 | 3.0 | 0.00 | 0.00 | 0.00 | 95 | 1015.5 |
| 20260510094008 | 54 | 200 | 0.0 | 3.0 | 0.00 | 0.00 | 0.00 | 94 | 1015.4 |
| 20260510093509 | 55 | 200 | 0.0 | 3.0 | 0.00 | 0.00 | 0.00 | 95 | 1015.3 |
| 20260510093026 | 55 | 200 | 1.0 | 3.0 | 0.00 | 0.00 | 0.00 | 95 | 1015.3 |
| 20260510092511 | 55 | 200 | 1.0 | 3.0 | 0.00 | 0.00 | 0.00 | 96 | 1015.2 |
| 20260510092011 | 55 | 200 | 0.0 | 3.0 | 0.00 | 0.00 | 0.00 | 96 | 1015.3 |
| 20260510091547 | 54 | 190 | 0.0 | 3.0 | 0.00 | 0.00 | 0.00 | 96 | 1015.2 |
| 20260510091007 | 53 | 171 | 0.0 | 3.0 | 0.00 | 0.00 | 0.00 | 94 | 1015.2 |
| 20260510090503 | 53 | 119 | 0.0 | 1.0 | 0.00 | 0.00 | 0.00 | 95 | 1015.3 |
| 20260510090018 | 53 | 119 | 0.0 | 1.0 | 0.00 | 0.00 | 0.00 | 95 | 1015.3 |
| 20260510085506 | 53 | 119 | 0.0 | 1.0 | 0.00 | 0.00 | 0.00 | 94 | 1015.2 |
| 20260510085007 | 53 | 119 | 0.0 | 1.0 | 0.00 | 0.00 | 0.00 | 94 | 1015.1 |
| 20260510084522 | 53 | 119 | 0.0 | 3.0 | 0.00 | 0.00 | 0.00 | 94 | 1015.0 |
| 20260510084006 | 54 | 119 | 0.0 | 3.0 | 0.00 | 0.00 | 0.00 | 94 | 1014.9 |
| 20260510083510 | 54 | 119 | 0.0 | 3.0 | 0.00 | 0.00 | 0.00 | 95 | 1014.8 |
| 20260510083024 | 54 | 119 | 0.0 | 1.0 | 0.00 | 0.00 | 0.00 | 95 | 1014.7 |
| 20260510082506 | 54 | 119 | 0.0 | 2.0 | 0.00 | 0.00 | 0.00 | 95 | 1014.7 |
| 20260510082008 | 54 | 119 | 0.0 | 2.0 | 0.00 | 0.00 | 0.00 | 95 | 1014.6 |
| 20260510081535 | 53 | 119 | 0.0 | 2.0 | 0.00 | 0.00 | 0.00 | 95 | 1014.5 |
| 20260510081011 | 54 | 119 | 1.0 | 2.0 | 0.00 | 0.00 | 0.00 | 95 | 1014.4 |
| 20260510080509 | 53 | 119 | 0.0 | 3.0 | 0.00 | 0.00 | 0.00 | 95 | 1014.4 |
| 20260510080027 | 53 | 119 | 0.0 | 3.0 | 0.00 | 0.00 | 0.00 | 96 | 1014.4 |
| 20260510075512 | 52 | 119 | 0.0 | 2.0 | 0.00 | 0.00 | 0.00 | 94 | 1014.4 |
| 20260510075007 | 52 | 119 | 0.0 | 3.0 | 0.00 | 0.00 | 0.00 | 93 | 1014.3 |
| 20260510074518 | 52 | 119 | 0.0 | 3.0 | 0.00 | 0.00 | 0.00 | 93 | 1014.2 |
| 20260510074007 | 51 | 119 | 1.0 | 3.0 | 0.00 | 0.00 | 0.00 | 93 | 1014.1 |
| 20260510073513 | 51 | 119 | 0.0 | 0.0 | 0.00 | 0.00 | 0.00 | 93 | 1014.1 |
| 20260510073034 | 51 | 119 | 0.0 | 2.0 | 0.00 | 0.00 | 0.00 | 92 | 1014.2 |
| 20260510072507 | 50 | 119 | 0.0 | 2.0 | 0.00 | 0.00 | 0.00 | 91 | 1014.1 |
| 20260510072008 | 50 | 119 | 0.0 | 2.0 | 0.00 | 0.00 | 0.00 | 91 | 1014.1 |
| 20260510071507 | 50 | 119 | 0.0 | 1.0 | 0.00 | 0.00 | 0.00 | 90 | 1014.1 |
| 20260510071004 | 50 | 119 | 0.0 | 1.0 | 0.00 | 0.00 | 0.00 | 90 | 1014.1 |
| 20260510070501 | 50 | 119 | 0.0 | 1.0 | 0.00 | 0.00 | 0.00 | 90 | 1014.2 |
| 20260510070014 | 50 | 119 | 0.0 | 1.0 | 0.00 | 0.00 | 0.00 | 90 | 1014.2 |
| 20260510065503 | 50 | 119 | 0.0 | 0.0 | 0.00 | 0.00 | 0.00 | 90 | 1014.2 |
| 20260510065003 | 50 | 119 | 0.0 | 0.0 | 0.00 | 0.00 | 0.00 | 90 | 1014.2 |
| 20260510064542 | 50 | 119 | 0.0 | 0.0 | 0.00 | 0.00 | 0.00 | 90 | 1014.2 |
| 20260510064005 | 50 | 119 | 0.0 | 0.0 | 0.00 | 0.00 | 0.00 | 90 | 1014.2 |
| 20260510063506 | 50 | 119 | 0.0 | 3.0 | 0.00 | 0.00 | 0.00 | 90 | 1014.2 |
| 20260510063025 | 50 | 119 | 0.0 | 3.0 | 0.00 | 0.00 | 0.00 | 89 | 1014.3 |
| 20260510062509 | 50 | 119 | 1.0 | 3.0 | 0.00 | 0.00 | 0.00 | 89 | 1014.3 |
| 20260510062007 | 50 | 119 | 2.0 | 3.0 | 0.00 | 0.00 | 0.00 | 89 | 1014.4 |
| 20260510061535 | 50 | 119 | 1.0 | 3.0 | 0.00 | 0.00 | 0.00 | 89 | 1014.4 |
| 20260510061003 | 51 | 119 | 1.0 | 3.0 | 0.00 | 0.00 | 0.00 | 89 | 1014.3 |
| 20260510060503 | 50 | 119 | 1.0 | 2.0 | 0.00 | 0.00 | 0.00 | 89 | 1014.4 |
| 20260510060024 | 50 | 119 | 0.0 | 2.0 | 0.00 | 0.00 | 0.00 | 89 | 1014.4 |
| 20260510055502 | 50 | 119 | 1.0 | 2.0 | 0.00 | 0.00 | 0.00 | 88 | 1014.4 |
| 20260510055004 | 51 | 119 | 0.0 | 0.0 | 0.00 | 0.00 | 0.00 | 88 | 1014.5 |
| 20260510054514 | 51 | 119 | 0.0 | 0.0 | 0.00 | 0.00 | 0.00 | 88 | 1014.4 |
| 20260510054003 | 51 | 119 | 0.0 | 0.0 | 0.00 | 0.00 | 0.00 | 88 | 1014.4 |
| 20260510053506 | 51 | 119 | 0.0 | 0.0 | 0.00 | 0.00 | 0.00 | 88 | 1014.4 |
| 20260510053020 | 51 | 119 | 0.0 | 0.0 | 0.00 | 0.00 | 0.00 | 88 | 1014.5 |
| 20260510052506 | 51 | 119 | 0.0 | 0.0 | 0.00 | 0.00 | 0.00 | 88 | 1014.5 |
| 20260510052007 | 51 | 119 | 0.0 | 0.0 | 0.00 | 0.00 | 0.00 | 87 | 1014.4 |
| 20260510051524 | 51 | 119 | 0.0 | 0.0 | 0.00 | 0.00 | 0.00 | 86 | 1014.4 |
| 20260510051007 | 51 | 119 | 0.0 | 0.0 | 0.00 | 0.00 | 0.00 | 86 | 1014.4 |
| 20260510050508 | 52 | 119 | 0.0 | 0.0 | 0.00 | 0.00 | 0.00 | 87 | 1014.4 |
| 20260510050027 | 52 | 119 | 0.0 | 0.0 | 0.00 | 0.00 | 0.00 | 86 | 1014.4 |
| 20260510045509 | 52 | 119 | 0.0 | 0.0 | 0.00 | 0.00 | 0.00 | 86 | 1014.3 |
| 20260510045007 | 52 | 119 | 0.0 | 0.0 | 0.00 | 0.00 | 0.00 | 86 | 1014.2 |
| 20260510044511 | 52 | 119 | 0.0 | 0.0 | 0.00 | 0.00 | 0.00 | 86 | 1014.2 |
| 20260510044004 | 52 | 119 | 0.0 | 2.0 | 0.00 | 0.00 | 0.00 | 85 | 1014.2 |
| 20260510043504 | 53 | 119 | 0.0 | 2.0 | 0.00 | 0.00 | 0.00 | 84 | 1014.3 |
| 20260510043016 | 53 | 119 | 0.0 | 1.0 | 0.00 | 0.00 | 0.00 | 85 | 1014.2 |
| 20260510042503 | 54 | 119 | 0.0 | 2.0 | 0.00 | 0.00 | 0.00 | 85 | 1014.1 |
| 20260510042009 | 54 | 119 | 0.0 | 2.0 | 0.00 | 0.00 | 0.00 | 85 | 1014.2 |
| 20260510041520 | 54 | 119 | 0.0 | 1.0 | 0.00 | 0.00 | 0.00 | 84 | 1014.2 |
| 20260510041005 | 54 | 119 | 0.0 | 0.0 | 0.00 | 0.00 | 0.00 | 84 | 1014.3 |
| 20260510040507 | 54 | 119 | 0.0 | 2.0 | 0.00 | 0.00 | 0.00 | 83 | 1014.2 |
| 20260510040024 | 55 | 119 | 0.0 | 2.0 | 0.00 | 0.00 | 0.00 | 83 | 1014.2 |
| 20260510035507 | 55 | 119 | 0.0 | 3.0 | 0.00 | 0.00 | 0.00 | 84 | 1014.2 |
| 20260510035009 | 55 | 119 | 1.0 | 4.0 | 0.00 | 0.00 | 0.00 | 84 | 1014.4 |
| 20260510034528 | 55 | 119 | 2.0 | 4.0 | 0.00 | 0.00 | 0.00 | 84 | 1014.4 |
| 20260510034011 | 55 | 121 | 1.0 | 3.0 | 0.00 | 0.00 | 0.00 | 83 | 1014.3 |
| 20260510033508 | 55 | 121 | 0.0 | 3.0 | 0.00 | 0.00 | 0.00 | 83 | 1014.3 |
| 20260510033014 | 55 | 121 | 0.0 | 3.0 | 0.00 | 0.00 | 0.00 | 83 | 1014.3 |
| 20260510032505 | 56 | 121 | 1.0 | 3.0 | 0.00 | 0.00 | 0.00 | 83 | 1014.2 |
| 20260510032003 | 56 | 121 | 2.0 | 3.0 | 0.00 | 0.00 | 0.00 | 83 | 1014.1 |
| 20260510031515 | 56 | 121 | 1.0 | 2.0 | 0.00 | 0.00 | 0.00 | 82 | 1014.1 |
| 20260510031006 | 56 | 121 | 0.0 | 2.0 | 0.00 | 0.00 | 0.00 | 83 | 1013.9 |
| 20260510030507 | 56 | 121 | 0.0 | 2.0 | 0.00 | 0.00 | 0.00 | 82 | 1013.9 |
| 20260510030024 | 56 | 121 | 1.0 | 2.0 | 0.00 | 0.00 | 0.00 | 81 | 1013.8 |
| 20260510025508 | 57 | 121 | 0.0 | 1.0 | 0.00 | 0.00 | 0.00 | 80 | 1013.8 |
| 20260510025008 | 57 | 121 | 0.0 | 1.0 | 0.00 | 0.00 | 0.00 | 79 | 1013.7 |
| 20260510024524 | 58 | 121 | 0.0 | 3.0 | 0.00 | 0.00 | 0.00 | 79 | 1013.8 |
| 20260510024010 | 58 | 121 | 0.0 | 3.0 | 0.00 | 0.00 | 0.00 | 78 | 1013.8 |
| 20260510023508 | 59 | 121 | 1.0 | 4.0 | 0.00 | 0.00 | 0.00 | 78 | 1013.7 |
| 20260510023028 | 59 | 121 | 1.0 | 4.0 | 0.00 | 0.00 | 0.00 | 78 | 1013.7 |
| 20260510022511 | 59 | 121 | 2.0 | 4.0 | 0.00 | 0.00 | 0.00 | 79 | 1013.7 |
| 20260510022011 | 59 | 119 | 0.0 | 4.0 | 0.00 | 0.00 | 0.00 | 79 | 1013.6 |
| 20260510021526 | 59 | 65 | 0.0 | 0.0 | 0.00 | 0.00 | 0.00 | 78 | 1013.5 |
| 20260510021003 | 59 | 65 | 0.0 | 2.0 | 0.00 | 0.00 | 0.00 | 76 | 1013.5 |
| 20260510020503 | 59 | 65 | 0.0 | 3.0 | 0.00 | 0.00 | 0.00 | 76 | 1013.4 |
| 20260510020018 | 60 | 65 | 1.0 | 3.0 | 0.00 | 0.00 | 0.00 | 76 | 1013.3 |
| 20260510015504 | 60 | 65 | 2.0 | 3.0 | 0.00 | 0.00 | 0.00 | 76 | 1013.3 |
| 20260510015010 | 60 | 65 | 2.0 | 3.0 | 0.00 | 0.00 | 0.00 | 75 | 1013.2 |
| 20260510014526 | 60 | 61 | 2.0 | 3.0 | 0.00 | 0.00 | 0.00 | 74 | 1013.2 |
| 20260510014007 | 61 | 56 | 1.0 | 3.0 | 0.00 | 0.00 | 0.00 | 73 | 1013.2 |
| 20260510013507 | 61 | 44 | 0.0 | 2.0 | 0.00 | 0.00 | 0.00 | 72 | 1013.2 |
| 20260510013025 | 61 | 44 | 0.0 | 3.0 | 0.00 | 0.00 | 0.00 | 72 | 1013.1 |
| 20260510012509 | 61 | 44 | 2.0 | 3.0 | 0.00 | 0.00 | 0.00 | 72 | 1012.9 |
| 20260510012010 | 61 | 44 | 1.0 | 3.0 | 0.00 | 0.00 | 0.00 | 71 | 1012.8 |
| 20260510011527 | 62 | 44 | 0.0 | 3.0 | 0.00 | 0.00 | 0.00 | 70 | 1012.7 |
| 20260510011013 | 62 | 34 | 0.0 | 3.0 | 0.00 | 0.00 | 0.00 | 69 | 1012.6 |
| 20260510010510 | 63 | 34 | 0.0 | 4.0 | 0.00 | 0.00 | 0.00 | 69 | 1012.7 |
| 20260510010030 | 63 | 34 | 2.0 | 4.0 | 0.00 | 0.00 | 0.00 | 68 | 1012.6 |
| 20260510005508 | 64 | 40 | 3.0 | 4.0 | 0.00 | 0.00 | 0.00 | 66 | 1012.4 |
| 20260510005006 | 65 | 82 | 1.0 | 3.0 | 0.00 | 0.00 | 0.00 | 63 | 1012.4 |
| 20260510004516 | 66 | 82 | 0.0 | 2.0 | 0.00 | 0.00 | 0.00 | 61 | 1012.5 |
| 20260510004010 | 67 | 225 | 0.0 | 1.0 | 0.00 | 0.00 | 0.00 | 59 | 1012.4 |
| 20260510003505 | 68 | 225 | 0.0 | 1.0 | 0.00 | 0.00 | 0.00 | 58 | 1012.5 |
| 20260510003004 | 68 | 221 | 0.0 | 1.0 | 0.00 | 0.00 | 0.00 | 56 | 1012.5 |
| 20260510002504 | 69 | 221 | 0.0 | 1.0 | 0.00 | 0.00 | 0.00 | 56 | 1012.4 |
| 20260510002003 | 69 | 221 | 0.0 | 1.0 | 0.00 | 0.00 | 0.00 | 55 | 1012.3 |
| 20260510001511 | 70 | 92 | 0.0 | 1.0 | 0.00 | 0.00 | 0.00 | 54 | 1012.2 |
| 20260510001002 | 71 | 92 | 0.0 | 1.0 | 0.00 | 0.00 | 0.00 | 54 | 1012.2 |
| 20260510000502 | 71 | 84 | 0.0 | 4.0 | 0.00 | 0.00 | 0.00 | 52 | 1012.1 |
| 20260510000011 | 72 | 288 | 1.0 | 4.0 | 0.00 | 0.00 | 0.00 | 50 | 1012.0 |
| 20260509235503 | 73 | 355 | 1.0 | 3.0 | 0.00 | 0.00 | 0.00 | 50 | 1012.1 |
| 20260509235012 | 73 | 250 | 0.0 | 3.0 | 0.00 | 0.00 | 0.00 | 50 | 1012.0 |
| 20260509234530 | 73 | 250 | 0.0 | 6.0 | 0.00 | 0.00 | 0.00 | 50 | 1011.9 |
| 20260509234009 | 74 | 250 | 0.0 | 6.0 | 0.00 | 0.00 | 0.00 | 50 | 1011.9 |
| 20260509233503 | 74 | 250 | 1.0 | 6.0 | 0.00 | 0.00 | 0.00 | 51 | 1011.8 |
| 20260509233033 | 74 | 279 | 1.0 | 4.0 | 0.00 | 0.00 | 0.00 | 51 | 1011.8 |
| 20260509232507 | 74 | 268 | 2.0 | 6.0 | 0.00 | 0.00 | 0.00 | 48 | 1011.8 |
| 20260509232011 | 75 | 268 | 1.0 | 6.0 | 0.00 | 0.00 | 0.00 | 47 | 1012.0 |
| 20260509231509 | 75 | 296 | 1.0 | 5.0 | 0.00 | 0.00 | 0.00 | 51 | 1011.8 |
| 20260509231002 | 75 | 265 | 1.0 | 5.0 | 0.00 | 0.00 | 0.00 | 49 | 1011.8 |
| 20260509230502 | 75 | 312 | 1.0 | 4.0 | 0.00 | 0.00 | 0.00 | 48 | 1011.8 |
| 20260509230010 | 75 | 292 | 1.0 | 4.0 | 0.00 | 0.00 | 0.00 | 50 | 1011.8 |
| 20260509225503 | 75 | 156 | 1.0 | 5.0 | 0.00 | 0.00 | 0.00 | 49 | 1011.9 |
| 20260509225005 | 75 | 140 | 2.0 | 5.0 | 0.00 | 0.00 | 0.00 | 47 | 1011.9 |
| 20260509224517 | 75 | 231 | 1.0 | 4.0 | 0.00 | 0.00 | 0.00 | 52 | 1011.8 |
| 20260509224008 | 75 | 257 | 2.0 | 8.0 | 0.00 | 0.00 | 0.00 | 52 | 1011.8 |
| 20260509223508 | 75 | 214 | 2.0 | 8.0 | 0.00 | 0.00 | 0.00 | 52 | 1011.8 |
| 20260509223022 | 75 | 212 | 2.0 | 9.0 | 0.00 | 0.00 | 0.00 | 48 | 1011.7 |
| 20260509222508 | 75 | 205 | 5.0 | 9.0 | 0.00 | 0.00 | 0.00 | 48 | 1011.7 |
| 20260509222008 | 76 | 207 | 2.0 | 5.0 | 0.00 | 0.00 | 0.00 | 52 | 1011.6 |
| 20260509221520 | 75 | 247 | 2.0 | 4.0 | 0.00 | 0.00 | 0.00 | 52 | 1011.6 |
| 20260509221005 | 74 | 204 | 1.0 | 9.0 | 0.00 | 0.00 | 0.00 | 52 | 1011.5 |
| 20260509220506 | 75 | 283 | 2.0 | 11.0 | 0.00 | 0.00 | 0.00 | 53 | 1011.7 |
| 20260509220016 | 75 | 240 | 3.0 | 11.0 | 0.00 | 0.00 | 0.00 | 53 | 1011.5 |
| 20260509215503 | 76 | 200 | 4.0 | 10.0 | 0.00 | 0.00 | 0.00 | 51 | 1011.4 |
| 20260509215003 | 76 | 347 | 1.0 | 5.0 | 0.00 | 0.00 | 0.00 | 55 | 1011.5 |
| 20260509214006 | 72 | 317 | 2.0 | 3.0 | 0.00 | 0.00 | 0.00 | 57 | 1011.5 |
| 20260509213512 | 73 | 200 | 0.0 | 8.0 | 0.00 | 0.00 | 0.00 | 52 | 1011.6 |
| 20260509213018 | 75 | 279 | 3.0 | 8.0 | 0.00 | 0.00 | 0.00 | 50 | 1011.5 |
| 20260509212503 | 76 | 269 | 3.0 | 8.0 | 0.00 | 0.00 | 0.00 | 54 | 1011.4 |
| 20260509212013 | 76 | 315 | 2.0 | 9.0 | 0.00 | 0.00 | 0.00 | 51 | 1011.4 |
| 20260509211521 | 76 | 216 | 4.0 | 11.0 | 0.00 | 0.00 | 0.00 | 51 | 1011.4 |
| 20260509211007 | 76 | 257 | 3.0 | 11.0 | 0.00 | 0.00 | 0.00 | 53 | 1011.3 |
| 20260509210507 | 77 | 277 | 5.0 | 8.0 | 0.00 | 0.00 | 0.00 | 50 | 1011.3 |
| 20260509210026 | 76 | 294 | 2.0 | 8.0 | 0.00 | 0.00 | 0.00 | 53 | 1011.2 |
| 20260509205506 | 75 | 19 | 3.0 | 8.0 | 0.00 | 0.00 | 0.00 | 57 | 1011.2 |
| 20260509205010 | 73 | 236 | 1.0 | 8.0 | 0.00 | 0.00 | 0.00 | 56 | 1011.4 |
| 20260509204529 | 74 | 256 | 2.0 | 8.0 | 0.00 | 0.00 | 0.00 | 58 | 1011.5 |
| 20260509204003 | 75 | 324 | 3.0 | 8.0 | 0.00 | 0.00 | 0.00 | 52 | 1011.4 |
| 20260509203504 | 76 | 270 | 2.0 | 11.0 | 0.00 | 0.00 | 0.00 | 58 | 1011.4 |
| 20260509203013 | 76 | 290 | 2.0 | 11.0 | 0.00 | 0.00 | 0.00 | 56 | 1011.6 |
| 20260509202506 | 77 | 229 | 3.0 | 9.0 | 0.00 | 0.00 | 0.00 | 54 | 1011.6 |
| 20260509202006 | 76 | 260 | 5.0 | 9.0 | 0.00 | 0.00 | 0.00 | 55 | 1011.5 |
| 20260509201520 | 76 | 331 | 3.0 | 11.0 | 0.00 | 0.00 | 0.00 | 58 | 1011.6 |
| 20260509201008 | 76 | 298 | 6.0 | 11.0 | 0.00 | 0.00 | 0.00 | 54 | 1011.6 |
| 20260509200510 | 76 | 322 | 3.0 | 11.0 | 0.00 | 0.00 | 0.00 | 56 | 1011.7 |
| 20260509200022 | 75 | 208 | 3.0 | 9.0 | 0.00 | 0.00 | 0.00 | 60 | 1011.8 |
| 20260509195506 | 73 | 236 | 5.0 | 9.0 | 0.00 | 0.00 | 0.00 | 60 | 1011.7 |
| 20260509195002 | 74 | 201 | 3.0 | 8.0 | 0.00 | 0.00 | 0.00 | 57 | 1011.7 |
| 20260509194509 | 75 | 247 | 4.0 | 8.0 | 0.00 | 0.00 | 0.00 | 56 | 1011.7 |
| 20260509194002 | 72 | 20 | 2.0 | 8.0 | 0.00 | 0.00 | 0.00 | 60 | 1011.7 |
| 20260509193501 | 74 | 294 | 2.0 | 8.0 | 0.00 | 0.00 | 0.00 | 56 | 1011.8 |
| 20260509193012 | 75 | 309 | 2.0 | 10.0 | 0.00 | 0.00 | 0.00 | 60 | 1012.0 |
| 20260509192503 | 74 | 221 | 5.0 | 10.0 | 0.00 | 0.00 | 0.00 | 61 | 1012.0 |
| 20260509192006 | 75 | 273 | 1.0 | 10.0 | 0.00 | 0.00 | 0.00 | 59 | 1011.9 |
| 20260509191518 | 75 | 221 | 5.0 | 10.0 | 0.00 | 0.00 | 0.00 | 60 | 1011.9 |
| 20260509191011 | 73 | 253 | 3.0 | 10.0 | 0.00 | 0.00 | 0.00 | 62 | 1011.9 |
| 20260509190503 | 74 | 161 | 4.0 | 12.0 | 0.00 | 0.00 | 0.00 | 61 | 1012.0 |
| 20260509190007 | 75 | 251 | 5.0 | 12.0 | 0.00 | 0.00 | 0.00 | 59 | 1011.8 |
| 20260509185504 | 73 | 333 | 4.0 | 11.0 | 0.00 | 0.00 | 0.00 | 61 | 1011.8 |
| 20260509185003 | 74 | 257 | 5.0 | 11.0 | 0.00 | 0.00 | 0.00 | 61 | 1011.8 |
| 20260509184512 | 72 | 203 | 4.0 | 9.0 | 0.00 | 0.00 | 0.00 | 64 | 1011.8 |
| 20260509184002 | 73 | 203 | 4.0 | 9.0 | 0.00 | 0.00 | 0.00 | 59 | 1011.7 |
| 20260509183501 | 73 | 202 | 3.0 | 10.0 | 0.00 | 0.00 | 0.00 | 62 | 1011.7 |
| 20260509183008 | 72 | 236 | 4.0 | 10.0 | 0.00 | 0.00 | 0.00 | 62 | 1011.6 |
| 20260509182503 | 73 | 318 | 2.0 | 8.0 | 0.00 | 0.00 | 0.00 | 68 | 1011.5 |
| 20260509182006 | 72 | 248 | 2.0 | 8.0 | 0.00 | 0.00 | 0.00 | 65 | 1011.4 |
| 20260509181517 | 73 | 246 | 2.0 | 10.0 | 0.00 | 0.00 | 0.00 | 62 | 1011.4 |
| 20260509181006 | 72 | 257 | 7.0 | 10.0 | 0.00 | 0.00 | 0.00 | 64 | 1011.5 |
| 20260509180507 | 72 | 226 | 7.0 | 10.0 | 0.00 | 0.00 | 0.00 | 62 | 1011.4 |
| 20260509180022 | 72 | 298 | 2.0 | 9.0 | 0.00 | 0.00 | 0.00 | 65 | 1011.4 |
| 20260509175512 | 71 | 265 | 3.0 | 9.0 | 0.00 | 0.00 | 0.00 | 63 | 1011.4 |
| 20260509175002 | 72 | 283 | 3.0 | 9.0 | 0.00 | 0.00 | 0.00 | 63 | 1011.5 |
| 20260509174504 | 70 | 272 | 1.0 | 9.0 | 0.00 | 0.00 | 0.00 | 63 | 1011.5 |